﻿_id,日時,平均風速(m/s),平均風向,最大瞬間風速(m/s),最大風速時風向,気温(℃),湿度(%),10分間移動積算雨量(mm),1時間移動積算雨量(mm),日雨量(mm),累計雨量(mm)
1,2021-06-14T00:00:00,2.1,西南西,4.4,西南西,19.7,95.4,0,2,4.5,6.5
2,2021-06-14T00:01:00,2,西南西,4.4,西南西,19.6,95.4,0,2,0,6.5
3,2021-06-14T00:02:00,1.8,南西,4.4,西南西,19.6,95.3,0,2,0,6.5
4,2021-06-14T00:03:00,1.6,南南西,4.4,西南西,19.5,95.3,0,2,0,6.5
5,2021-06-14T00:04:00,1.4,南,3.3,西南西,19.5,95.4,0,2,0,6.5
6,2021-06-14T00:05:00,1.3,南南東,2.9,東南東,19.5,95.5,0,2,0,6.5
7,2021-06-14T00:06:00,1.5,南東,3.3,東南東,19.4,95.4,0,2,0,6.5
8,2021-06-14T00:07:00,1.6,南東,3.9,東南東,19.4,95.4,0,2,0,6.5
9,2021-06-14T00:08:00,1.8,南東,3.9,東南東,19.3,95.5,0,2,0,6.5
10,2021-06-14T00:09:00,2.1,東南東,4.2,東南東,19.3,95.5,0,1.5,0,6.5
11,2021-06-14T00:10:00,2.3,東南東,4.2,東南東,19.3,95.6,0,1.5,0,6.5
12,2021-06-14T00:11:00,2.5,東南東,4.2,東南東,19.3,95.7,0.5,2,0.5,7
13,2021-06-14T00:12:00,2.7,東南東,4.2,東南東,19.2,95.8,0.5,2,0.5,7
14,2021-06-14T00:13:00,2.7,東南東,4.2,東南東,19.2,95.9,0.5,1.5,0.5,7
15,2021-06-14T00:14:00,2.7,東南東,4.2,東南東,19.3,96,0.5,1.5,0.5,7
16,2021-06-14T00:15:00,2.6,東南東,4.2,東南東,19.3,96,0.5,1.5,0.5,7
17,2021-06-14T00:16:00,2.3,東南東,4.2,東南東,19.3,96,0.5,1.5,0.5,7
18,2021-06-14T00:17:00,2,南東,4.2,東南東,19.4,96,0.5,1.5,0.5,7
19,2021-06-14T00:18:00,1.9,南東,4.2,東南東,19.4,96.1,0.5,1.5,0.5,7
20,2021-06-14T00:19:00,1.7,南南東,4,東南東,19.4,96.1,0.5,1.5,0.5,7
21,2021-06-14T00:20:00,1.4,南,3.6,東南東,19.4,96,0.5,1.5,0.5,7
22,2021-06-14T00:21:00,1.3,南南西,3,東南東,19.4,96.1,0,1.5,0.5,7
23,2021-06-14T00:22:00,1.2,西南西,2.4,東南東,19.4,96,0,1.5,0.5,7
24,2021-06-14T00:23:00,1.2,西北西,2.1,西,19.3,96,0,1.5,0.5,7
25,2021-06-14T00:24:00,1.3,西北西,2.1,西,19.3,96,0,1.5,0.5,7
26,2021-06-14T00:25:00,1.4,北西,2.3,東北東,19.3,96.1,0,1.5,0.5,7
27,2021-06-14T00:26:00,1.5,北北西,2.4,東,19.3,96.1,0,1.5,0.5,7
28,2021-06-14T00:27:00,1.7,北,3.3,東南東,19.4,96.1,0,1.5,0.5,7
29,2021-06-14T00:28:00,2,北北東,4.8,東南東,19.3,96.1,0,1.5,0.5,7
30,2021-06-14T00:29:00,2.2,北東,4.8,東南東,19.3,96,0,1.5,0.5,7
31,2021-06-14T00:30:00,2.4,東北東,4.8,東南東,19.3,96.1,0,1.5,0.5,7
32,2021-06-14T00:31:00,2.4,東北東,4.8,東南東,19.3,96.1,0,1.5,0.5,7
33,2021-06-14T00:32:00,2.4,東,4.8,東南東,19.3,96.2,0,1,0.5,7
34,2021-06-14T00:33:00,2.3,東,4.8,東南東,19.3,96.3,0,1,0.5,7
35,2021-06-14T00:34:00,2.3,東,4.8,東南東,19.3,96.2,0,1,0.5,7
36,2021-06-14T00:35:00,2.2,東,4.8,東南東,19.3,96.3,0,1,0.5,7
37,2021-06-14T00:36:00,2.3,東,4.8,東南東,19.3,96.3,0,1,0.5,7
38,2021-06-14T00:37:00,2.3,東,4.8,東南東,19.3,96.3,0,1,0.5,7
39,2021-06-14T00:38:00,2.3,東北東,4.5,東南東,19.3,96.3,0,1,0.5,7
40,2021-06-14T00:39:00,2.2,東北東,4.5,東南東,19.3,96.3,0,1,0.5,7
41,2021-06-14T00:40:00,2.2,北東,4.1,北北東,19.3,96.4,0,1,0.5,7
42,2021-06-14T00:41:00,2.2,北東,4.1,北北東,19.3,96.4,0,0.5,0.5,7
43,2021-06-14T00:42:00,2.2,北北東,4.1,北北東,19.3,96.4,0,0.5,0.5,7
44,2021-06-14T00:43:00,2.2,北北東,4.1,北北東,19.4,96.6,0,0.5,0.5,7
45,2021-06-14T00:44:00,2.1,北,4.1,北北東,19.4,96.6,0,0.5,0.5,7
46,2021-06-14T00:45:00,2.1,北,4.1,北北東,19.4,96.5,0,0.5,0.5,7
47,2021-06-14T00:46:00,1.9,北,4.1,北北東,19.3,96.5,0,0.5,0.5,7
48,2021-06-14T00:47:00,1.8,北北西,4.1,北北東,19.4,96.5,0,0.5,0.5,7
49,2021-06-14T00:48:00,1.5,北西,3.8,北北東,19.3,96.6,0,0.5,0.5,7
50,2021-06-14T00:49:00,1.3,西,3.4,北北東,19.4,96.6,0,0.5,0.5,7
51,2021-06-14T00:50:00,1.2,西南西,2.8,北北東,19.3,96.6,0,0.5,0.5,7
52,2021-06-14T00:51:00,1.1,南西,2,北北東,19.3,96.6,0,0.5,0.5,7
53,2021-06-14T00:52:00,1,南南西,1.7,南,19.3,96.6,0,0.5,0.5,7
54,2021-06-14T00:53:00,1,南南西,1.7,南,19.3,96.5,0,0.5,0.5,7
55,2021-06-14T00:54:00,1,南南西,1.7,南,19.3,96.5,0,0.5,0.5,7
56,2021-06-14T00:55:00,1,南南西,1.7,南,19.3,96.6,0,0.5,0.5,7
57,2021-06-14T00:56:00,0.9,南南西,1.7,南,19.3,96.6,0,0.5,0.5,7
58,2021-06-14T00:57:00,0.9,南南西,1.7,南,19.3,96.6,0,0.5,0.5,7
59,2021-06-14T00:58:00,0.8,南南西,1.7,南,19.3,96.6,0,0.5,0.5,7
60,2021-06-14T00:59:00,0.8,南西,1.6,南,19.2,96.6,0,0.5,0.5,7
61,2021-06-14T01:00:00,0.7,南西,1.4,南,19.3,96.6,0,0.5,0.5,7
62,2021-06-14T01:01:00,0.7,南西,1.2,南西,19.3,96.6,0,0.5,0.5,7
63,2021-06-14T01:02:00,0.7,南西,1.2,南西,19.3,96.7,0,0.5,0.5,7
64,2021-06-14T01:03:00,0.8,南西,1.4,西南西,19.3,96.7,0,0.5,0.5,7
65,2021-06-14T01:04:00,0.9,南西,1.4,西南西,19.3,96.7,0,0.5,0.5,7
66,2021-06-14T01:05:00,0.9,南西,1.4,西南西,19.3,96.7,0,0.5,0.5,7
67,2021-06-14T01:06:00,1,南西,1.8,西,19.3,96.7,0,0.5,0.5,7
68,2021-06-14T01:07:00,1.2,西南西,2.9,西,19.3,96.7,0,0.5,0.5,7
69,2021-06-14T01:08:00,1.3,西南西,2.9,西,19.4,96.8,0,0.5,0.5,7
70,2021-06-14T01:09:00,1.4,西南西,2.9,西,19.3,96.7,0,0.5,0.5,7
71,2021-06-14T01:10:00,1.5,西南西,2.9,西,19.3,96.6,0,0.5,0.5,7
72,2021-06-14T01:11:00,1.5,西南西,2.9,西,19.3,96.6,0,0,0.5,7
73,2021-06-14T01:12:00,1.6,西南西,2.9,西,19.3,96.7,0,0,0.5,7
74,2021-06-14T01:13:00,1.7,西南西,2.9,西,19.3,96.5,0,0,0.5,7
75,2021-06-14T01:14:00,1.8,西南西,2.9,西,19.3,96.5,0,0,0.5,7
76,2021-06-14T01:15:00,1.8,西南西,2.9,西,19.3,96.5,0,0,0.5,7
77,2021-06-14T01:16:00,1.8,西南西,2.9,西,19.3,96.5,0,0,0.5,7
78,2021-06-14T01:17:00,1.9,西南西,3.6,西,19.3,96.5,0,0,0.5,7
79,2021-06-14T01:18:00,2,西南西,3.7,西南西,19.3,96.4,0,0,0.5,7
80,2021-06-14T01:19:00,2.1,西南西,4,西,19.3,96.4,0,0,0.5,7
81,2021-06-14T01:20:00,2.1,西南西,4,西,19.3,96.4,0,0,0.5,7
82,2021-06-14T01:21:00,2.2,西南西,4,西,19.4,96.4,0,0,0.5,7
83,2021-06-14T01:22:00,2.2,西南西,4,西,19.3,96.3,0,0,0.5,7
84,2021-06-14T01:23:00,2.1,西南西,4,西,19.3,96.2,0,0,0.5,7
85,2021-06-14T01:24:00,2.1,西南西,4,西,19.3,96.2,0,0,0.5,7
86,2021-06-14T01:25:00,2.1,西南西,4,西,19.3,96.2,0,0,0.5,7
87,2021-06-14T01:26:00,2.1,西南西,4,西,19.3,96.2,0,0,0.5,7
88,2021-06-14T01:27:00,2,南西,4,西,19.3,96.3,0,0,0.5,7
89,2021-06-14T01:28:00,1.9,南西,4,西,19.3,96.3,0,0,0.5,7
90,2021-06-14T01:29:00,1.8,南西,3.7,西南西,19.4,96.2,0,0,0.5,7
91,2021-06-14T01:30:00,1.6,南西,3,西南西,19.4,96.1,0,0,0.5,7
92,2021-06-14T01:31:00,1.5,南西,2.8,南,19.4,96.1,0,0,0.5,7
93,2021-06-14T01:32:00,1.5,南西,2.8,南,19.4,96.2,0,0,0.5,7
94,2021-06-14T01:33:00,1.5,南西,2.8,南,19.4,96.1,0,0,0.5,7
95,2021-06-14T01:34:00,1.4,西南西,2.8,南,19.5,96,0,0,0.5,7
96,2021-06-14T01:35:00,1.4,西南西,2.8,南,19.5,96,0,0,0.5,7
97,2021-06-14T01:36:00,1.3,西南西,2.8,南,19.5,96,0,0,0.5,7
98,2021-06-14T01:37:00,1.4,西南西,2.8,南,19.5,96,0,0,0.5,7
99,2021-06-14T01:38:00,1.3,西,2.8,南,19.5,96,0,0,0.5,7
100,2021-06-14T01:39:00,1.3,西,2.5,西北西,19.5,95.8,0,0,0.5,7
101,2021-06-14T01:40:00,1.4,西,3.1,西北西,19.5,95.7,0,0,0.5,7
102,2021-06-14T01:41:00,1.5,西,3.1,西北西,19.5,95.7,0,0,0.5,7
103,2021-06-14T01:42:00,1.5,西,3.3,西南西,19.5,95.7,0,0,0.5,7
104,2021-06-14T01:43:00,1.7,西,3.8,西南西,19.4,95.6,0,0,0.5,7
105,2021-06-14T01:44:00,1.9,西,3.8,西南西,19.4,95.5,0,0,0.5,7
106,2021-06-14T01:45:00,2,西南西,3.8,西南西,19.4,95.6,0,0,0.5,7
107,2021-06-14T01:46:00,2.1,西南西,3.8,西南西,19.4,95.6,0,0,0.5,7
108,2021-06-14T01:47:00,2.1,西南西,3.8,西南西,19.3,95.7,0,0,0.5,7
109,2021-06-14T01:48:00,2.1,南西,3.8,西南西,19.4,95.8,0,0,0.5,7
110,2021-06-14T01:49:00,2.1,南西,3.8,西南西,19.3,95.7,0,0,0.5,7
111,2021-06-14T01:50:00,2,南西,3.8,西南西,19.2,95.6,0,0,0.5,7
112,2021-06-14T01:51:00,1.9,南南西,3.8,西南西,19.2,95.7,0,0,0.5,7
113,2021-06-14T01:52:00,1.8,南南西,3.8,西南西,19.3,95.7,0,0,0.5,7
114,2021-06-14T01:53:00,1.6,南南西,3.6,西南西,19.3,95.8,0,0,0.5,7
115,2021-06-14T01:54:00,1.3,南南西,2.8,南南西,19.4,95.8,0,0,0.5,7
116,2021-06-14T01:55:00,1.1,南,2.8,南南西,19.3,95.8,0,0,0.5,7
117,2021-06-14T01:56:00,1,南,2,南,19.3,95.8,0,0,0.5,7
118,2021-06-14T01:57:00,1,南,1.9,南南西,19.3,95.7,0,0,0.5,7
119,2021-06-14T01:58:00,1,南,1.9,南南西,19.3,95.8,0,0,0.5,7
120,2021-06-14T01:59:00,1,東南東,1.8,南,19.3,95.8,0,0,0.5,7
121,2021-06-14T02:00:00,1,東北東,1.8,東北東,19.3,95.8,0,0,0.5,7
122,2021-06-14T02:01:00,1,東北東,1.8,東北東,19.3,95.8,0,0,0.5,7
123,2021-06-14T02:02:00,1.1,東北東,2.3,東,19.3,95.9,0,0,0.5,7
124,2021-06-14T02:03:00,1.2,東北東,2.3,東,19.3,95.8,0,0,0.5,7
125,2021-06-14T02:04:00,1.2,北東,2.3,東,19.2,95.8,0,0,0.5,7
126,2021-06-14T02:05:00,1.3,東北東,2.3,東,19.2,95.8,0,0,0.5,7
127,2021-06-14T02:06:00,1.3,東北東,2.3,東,19.2,95.8,0,0,0.5,7
128,2021-06-14T02:07:00,1.3,東,2.3,東,19.2,95.9,0,0,0.5,7
129,2021-06-14T02:08:00,1.2,東,2.3,東,19.2,96,0,0,0.5,7
130,2021-06-14T02:09:00,1.2,東,2.3,東,19.1,95.9,0,0,0.5,7
131,2021-06-14T02:10:00,1.2,東,2.3,東,19.1,95.9,0,0,0.5,7
132,2021-06-14T02:11:00,1.2,東北東,2.3,東,19.2,95.9,0,0,0.5,7
133,2021-06-14T02:12:00,1.2,東北東,2.3,東,19.2,96,0,0,0.5,7
134,2021-06-14T02:13:00,1.3,北東,2.4,北北西,19.3,96.1,0,0,0.5,7
135,2021-06-14T02:14:00,1.4,北北東,2.7,北北西,19.3,96.1,0,0,0.5,7
136,2021-06-14T02:15:00,1.4,北,2.7,北北西,19.2,95.9,0,0,0.5,7
137,2021-06-14T02:16:00,1.3,北,2.7,北北西,19.2,95.8,0,0,0.5,7
138,2021-06-14T02:17:00,1.3,北北西,2.7,北北西,19.2,95.9,0,0,0.5,7
139,2021-06-14T02:18:00,1.4,北北西,2.7,北北西,19.2,95.9,0,0,0.5,7
140,2021-06-14T02:19:00,1.4,北北西,2.7,北北西,19.3,96,0,0,0.5,7
141,2021-06-14T02:20:00,1.4,北西,2.7,北北西,19.3,96.1,0,0,0.5,7
142,2021-06-14T02:21:00,1.3,北西,2.7,北北西,19.2,96,0,0,0.5,7
143,2021-06-14T02:22:00,1.4,西北西,2.7,北北西,19.2,96,0,0,0.5,7
144,2021-06-14T02:23:00,1.4,西,2.9,南南西,19.3,96,0,0,0.5,7
145,2021-06-14T02:24:00,1.4,西,2.9,南南西,19.3,96.1,0,0,0.5,7
146,2021-06-14T02:25:00,1.4,西南西,3.2,南南西,19.3,96.2,0,0,0.5,7
147,2021-06-14T02:26:00,1.6,南西,3.2,南南西,19.3,96.1,0,0,0.5,7
148,2021-06-14T02:27:00,1.6,南西,3.2,南南西,19.2,96,0,0,0.5,7
149,2021-06-14T02:28:00,1.7,南西,3.2,南南西,19.2,96,0,0,0.5,7
150,2021-06-14T02:29:00,1.8,南西,3.2,南南西,19.3,96,0,0,0.5,7
151,2021-06-14T02:30:00,1.8,南西,3.2,南南西,19.3,96.1,0,0,0.5,7
152,2021-06-14T02:31:00,1.8,南西,3.2,南南西,19.3,96.1,0,0,0.5,7
153,2021-06-14T02:32:00,1.7,南西,3.2,南南西,19.3,96.1,0,0,0.5,7
154,2021-06-14T02:33:00,1.7,南西,3.2,南南西,19.3,96.1,0,0,0.5,7
155,2021-06-14T02:34:00,1.6,南西,3.2,南南西,19.3,96,0,0,0.5,7
156,2021-06-14T02:35:00,1.6,南西,2.8,南西,19.2,96,0,0,0.5,7
157,2021-06-14T02:36:00,1.7,南西,2.8,南西,19.2,96,0,0,0.5,7
158,2021-06-14T02:37:00,1.7,南西,3.3,南,19.2,96,0,0,0.5,7
159,2021-06-14T02:38:00,1.8,南西,3.3,南,19.2,96,0,0,0.5,7
160,2021-06-14T02:39:00,1.8,南西,3.3,南,19.2,96,0,0,0.5,7
161,2021-06-14T02:40:00,1.9,南西,3.3,南,19.2,96.1,0,0,0.5,7
162,2021-06-14T02:41:00,1.9,南西,3.3,南,19.4,96.4,0,0,0.5,7
163,2021-06-14T02:42:00,1.9,南南西,3.3,南,19.4,96.5,0,0,0.5,7
164,2021-06-14T02:43:00,1.9,南南西,3.3,南,19.3,96,0,0,0.5,7
165,2021-06-14T02:44:00,1.9,南南西,3.3,南,19.2,95.9,0,0,0.5,7
166,2021-06-14T02:45:00,1.8,南,3.3,南,19.2,95.9,0,0,0.5,7
167,2021-06-14T02:46:00,1.7,南,3.3,南,19.2,96,0,0,0.5,7
168,2021-06-14T02:47:00,1.5,南,3.2,南西,19.1,95.9,0,0,0.5,7
169,2021-06-14T02:48:00,1.3,南,3.2,南西,19.2,96,0,0,0.5,7
170,2021-06-14T02:49:00,1.1,南南東,3.1,南南東,19.2,96,0,0,0.5,7
171,2021-06-14T02:50:00,1,南南東,3.1,南南東,19.2,96,0,0,0.5,7
172,2021-06-14T02:51:00,0.9,南南東,3.1,南南東,19.2,96,0,0,0.5,7
173,2021-06-14T02:52:00,0.9,南,3.1,南南東,19.2,96,0,0,0.5,7
174,2021-06-14T02:53:00,0.9,南南西,2.9,南南東,19.2,96,0,0,0.5,7
175,2021-06-14T02:54:00,0.9,北西,2.2,北,19.2,96,0,0,0.5,7
176,2021-06-14T02:55:00,1.1,北北西,2.3,北,19.2,96.1,0,0,0.5,7
177,2021-06-14T02:56:00,1.1,北北西,2.3,北,19.2,96.1,0,0,0.5,7
178,2021-06-14T02:57:00,1.2,北北西,2.3,北,19.2,96,0,0,0.5,7
179,2021-06-14T02:58:00,1.3,北北西,2.3,北,19.2,96,0,0,0.5,7
180,2021-06-14T02:59:00,1.4,北北西,2.3,北,19.1,96,0,0,0.5,7
181,2021-06-14T03:00:00,1.4,北北西,2.3,北,19.1,96,0,0,0.5,7
182,2021-06-14T03:01:00,1.4,北,2.3,北,19.1,96,0,0,0.5,7
183,2021-06-14T03:02:00,1.4,北,2.3,北,19.1,96.1,0,0,0.5,7
184,2021-06-14T03:03:00,1.3,北北西,2.3,北,19.1,96.2,0,0,0.5,7
185,2021-06-14T03:04:00,1.2,北北西,2.3,北,19.1,96.1,0,0,0.5,7
186,2021-06-14T03:05:00,1.1,北北西,2.1,北北西,19,96,0,0,0.5,7
187,2021-06-14T03:06:00,1.1,北西,1.8,西南西,19,96,0,0,0.5,7
188,2021-06-14T03:07:00,1.1,西北西,1.8,西南西,19,96.1,0,0,0.5,7
189,2021-06-14T03:08:00,1.1,西北西,2,西北西,19,96.2,0,0,0.5,7
190,2021-06-14T03:09:00,1.2,西北西,2.4,北西,19,96.2,0,0,0.5,7
191,2021-06-14T03:10:00,1.3,西,2.4,北西,19,96.2,0,0,0.5,7
192,2021-06-14T03:11:00,1.3,西,2.4,北西,19,96.2,0,0,0.5,7
193,2021-06-14T03:12:00,1.4,西,2.4,北西,19,96.2,0,0,0.5,7
194,2021-06-14T03:13:00,1.4,西北西,2.4,北西,19,96.3,0,0,0.5,7
195,2021-06-14T03:14:00,1.3,西北西,2.4,北西,19,96.3,0,0,0.5,7
196,2021-06-14T03:15:00,1.3,西北西,2.4,北西,19,96.3,0,0,0.5,7
197,2021-06-14T03:16:00,1.2,西北西,2.4,北西,19.1,96.3,0,0,0.5,7
198,2021-06-14T03:17:00,1.1,西北西,2.4,北西,19.1,96.4,0,0,0.5,7
199,2021-06-14T03:18:00,1,西北西,2.4,北西,19.1,96.4,0,0,0.5,7
200,2021-06-14T03:19:00,0.9,西北西,2.3,北西,19.1,96.4,0,0,0.5,7
201,2021-06-14T03:20:00,0.7,西,1.9,北北西,19.1,96.5,0,0,0.5,7
202,2021-06-14T03:21:00,0.6,南東,1.4,北西,19.1,96.4,0,0,0.5,7
203,2021-06-14T03:22:00,0.6,東南東,1.2,東北東,19.1,96.3,0,0,0.5,7
204,2021-06-14T03:23:00,0.6,東南東,1.2,東北東,19,96.3,0,0,0.5,7
205,2021-06-14T03:24:00,0.6,東南東,1.2,東北東,19,96.3,0,0,0.5,7
206,2021-06-14T03:25:00,0.7,東南東,1.2,東北東,19,96.4,0,0,0.5,7
207,2021-06-14T03:26:00,0.7,東,1.6,西北西,19,96.5,0,0,0.5,7
208,2021-06-14T03:27:00,0.8,東北東,1.8,西北西,19,96.5,0,0,0.5,7
209,2021-06-14T03:28:00,0.8,東北東,1.8,西北西,19,96.5,0,0,0.5,7
210,2021-06-14T03:29:00,0.7,北東,1.8,西北西,19,96.5,0,0,0.5,7
211,2021-06-14T03:30:00,0.7,北東,1.8,西北西,19,96.5,0,0,0.5,7
212,2021-06-14T03:31:00,0.6,北北東,1.8,西北西,19,96.5,0,0,0.5,7
213,2021-06-14T03:32:00,0.6,北北西,1.8,西北西,19,96.5,0,0,0.5,7
214,2021-06-14T03:33:00,0.6,西北西,1.8,西北西,19.1,96.6,0,0,0.5,7
215,2021-06-14T03:34:00,0.7,西,1.8,西北西,19.1,96.6,0,0,0.5,7
216,2021-06-14T03:35:00,0.7,西,1.8,西北西,19.1,96.5,0,0,0.5,7
217,2021-06-14T03:36:00,0.6,西,1.8,西北西,19.1,96.5,0,0,0.5,7
218,2021-06-14T03:37:00,0.5,西,1.3,北西,19,96.5,0,0,0.5,7
219,2021-06-14T03:38:00,0.5,西北西,1.3,北西,19,96.5,0,0,0.5,7
220,2021-06-14T03:39:00,0.5,西北西,1.3,北西,19,96.5,0,0,0.5,7
221,2021-06-14T03:40:00,0.5,西北西,1.3,北西,19.1,96.6,0,0,0.5,7
222,2021-06-14T03:41:00,0.5,西北西,1.3,北西,19.1,96.6,0,0,0.5,7
223,2021-06-14T03:42:00,0.5,西北西,1.3,北西,19.1,96.6,0,0,0.5,7
224,2021-06-14T03:43:00,0.5,北東,1.3,北西,19,96.5,0,0,0.5,7
225,2021-06-14T03:44:00,0.5,東,1.3,東南東,19,96.5,0,0,0.5,7
226,2021-06-14T03:45:00,0.5,東,1.3,東南東,19,96.5,0,0,0.5,7
227,2021-06-14T03:46:00,0.5,東,1.3,東南東,19,96.5,0,0,0.5,7
228,2021-06-14T03:47:00,0.5,東,1.3,東南東,19,96.5,0,0,0.5,7
229,2021-06-14T03:48:00,0.5,東南東,1.3,東南東,19,96.6,0,0,0.5,7
230,2021-06-14T03:49:00,0.6,東南東,1.3,東南東,19,96.6,0,0,0.5,7
231,2021-06-14T03:50:00,0.7,東南東,1.3,東南東,19,96.7,0,0,0.5,7
232,2021-06-14T03:51:00,0.6,東南東,1.3,東南東,18.9,96.5,0,0,0.5,7
233,2021-06-14T03:52:00,0.6,東南東,1.3,東南東,18.9,96.5,0,0,0.5,7
234,2021-06-14T03:53:00,0.6,東南東,1.2,東南東,18.8,96.5,0,0,0.5,7
235,2021-06-14T03:54:00,0.6,東南東,1.2,東南東,18.8,96.5,0,0,0.5,7
236,2021-06-14T03:55:00,0.6,南東,1.2,東南東,18.8,96.5,0,0,0.5,7
237,2021-06-14T03:56:00,0.6,南南東,1.2,東南東,18.8,96.6,0,0,0.5,7
238,2021-06-14T03:57:00,0.5,南南東,1.2,東南東,19.1,97,0,0,0.5,7
239,2021-06-14T03:58:00,0.5,南南東,1.2,東南東,19,96.9,0,0,0.5,7
240,2021-06-14T03:59:00,0.5,南南東,1.1,北北東,18.8,96.5,0,0,0.5,7
241,2021-06-14T04:00:00,0.5,南南東,1.2,北北東,18.8,96.5,0,0,0.5,7
242,2021-06-14T04:01:00,0.6,南東,1.3,北北東,18.8,96.5,0,0,0.5,7
243,2021-06-14T04:02:00,0.7,東南東,1.3,北北東,18.8,96.6,0,0,0.5,7
244,2021-06-14T04:03:00,0.7,北東,1.3,北北東,18.8,96.6,0,0,0.5,7
245,2021-06-14T04:04:00,0.7,北東,1.3,北北東,18.8,96.7,0,0,0.5,7
246,2021-06-14T04:05:00,0.6,北東,1.3,北北東,19.1,97.1,0,0,0.5,7
247,2021-06-14T04:06:00,0.5,北東,1.3,北北東,19.2,97.3,0,0,0.5,7
248,2021-06-14T04:07:00,0.5,北東,1.3,北北東,19.1,96.9,0,0,0.5,7
249,2021-06-14T04:08:00,0.5,東北東,1.3,北北東,19,96.7,0,0,0.5,7
250,2021-06-14T04:09:00,0.5,東北東,1.3,北北東,18.9,96.6,0,0,0.5,7
